{"data":{"norad_id":54665,"intl_designator":"2022-166Z","name":"ONEWEB-0601","alt_names":[],"object_type":"PAYLOAD","status":"ACTIVE","operator":null,"country":"UK","launch_date":"2022-12-08","launch_site_code":"AFETR","launch_vehicle":null,"mission":null,"orbit_class":"UNKNOWN","rcs_meters":null,"size_class":null,"mass_kg":null,"dimensions":null,"purposes":["comms"],"wikipedia_slug":null,"has_3d_model":false,"image_url":null,"decayed_at":null,"tle_current":{"epoch":"2026-05-25T00:31:35.502816Z","epoch_age_seconds":72903,"freshness":"FRESH","line1":"1 54665U 22166Z   26145.02193869  .00000049  00000+0  86656-4 0  9996","line2":"2 54665  87.9252 248.6044 0002257  98.3415 261.7975 13.21827517168644","mean_motion":13.21827517,"eccentricity":0.0002257,"inclination_deg":87.9252,"raan_deg":248.6044,"arg_perigee_deg":98.3415,"mean_anomaly_deg":261.7975,"bstar":8.6656e-5,"rev_number":16864,"period_min":108.94008344358,"perigee_km":1176.042224186,"apogee_km":1179.4529504887,"semimajor_km":7555.8845873373,"source":"CELESTRAK","updated_at":"2026-05-25T13:38:22.634861Z"}}}